Theta_e
321 320 323 321 323 324 325 332 325 323 326 319 315 321 317 317 321 317 317 318 317 317 316 319 322 320 321 321 322 325 323 326 326 321 321 327 334 334 335 336 335 339 339 342 344 342 342 342 342 341 340 338 337 334 334 335 336 337 338 339 340 340 340 338 339 340 339 339 338 339 338 337 337 335 335 336 335 334 332 331 332 332 330 328 327 326 325 324 320 311 303 301 301 302 305 312 322
321 320 323 322 323 323 327 334 330 325 326 316 313 320 317 318 320 317 319 318 318 317 318 324 325 323 324 324 324 329 325 326 325 318 325 331 332 334 337 337 335 337 339 342 344 343 342 343 342 342 340 338 337 334 334 334 335 336 337 338 339 339 339 339 339 339 339 339 338 338 338 338 337 336 336 336 336 336 336 336 335 334 330 328 327 327 325 323 319 311 303 301 301 301 302 306 315
320 321 322 323 323 325 335 333 324 324 324 318 316 321 317 318 319 319 321 317 317 317 319 322 322 319 320 326 325 326 323 328 331 327 330 329 329 335 339 339 336 338 340 341 344 344 343 343 343 343 340 339 337 336 334 334 336 336 336 337 337 336 338 339 338 338 338 338 338 338 338 338 337 337 337 336 336 336 336 336 336 334 330 328 328 327 324 322 316 308 302 301 301 301 305 306 309
320 322 321 324 325 331 351 338 327 327 321 319 318 321 322 322 321 321 323 320 317 315 316 317 320 315 317 326 321 321 324 326 330 331 333 327 329 335 338 340 338 340 342 341 343 344 344 344 343 343 341 339 338 337 335 334 336 336 336 336 335 334 336 338 338 336 335 336 337 338 338 337 336 336 336 336 336 336 336 336 335 333 329 329 328 326 323 320 312 304 301 300 301 301 309 311 310
320 323 320 323 327 332 341 329 329 331 319 320 318 320 328 326 323 322 321 318 315 315 317 318 319 315 320 325 320 324 324 321 323 328 332 329 332 335 338 342 341 342 342 341 343 344 343 344 343 343 342 340 339 337 336 335 336 336 336 335 333 333 335 337 338 336 334 335 336 337 337 337 336 336 335 335 336 336 335 335 334 331 329 329 328 324 322 319 309 301 300 300 300 301 310 314 313
321 321 320 320 320 322 326 319 321 326 320 322 320 319 326 324 322 322 318 313 314 316 318 320 320 321 328 326 323 329 326 324 326 328 331 332 335 334 337 342 342 342 341 340 343 343 343 343 343 343 343 340 339 338 337 336 336 335 335 333 332 332 335 336 337 336 335 334 335 335 336 336 336 335 335 335 335 335 335 334 332 330 330 329 327 323 321 317 307 300 300 300 300 302 312 316 318
320 320 325 328 323 322 327 322 320 321 317 318 321 319 320 321 319 318 315 313 315 316 318 321 322 324 328 322 321 326 326 330 329 330 333 333 335 335 337 341 343 342 340 341 342 343 343 343 343 343 343 341 339 339 338 336 335 334 334 333 332 331 333 334 336 336 334 332 332 334 335 335 334 334 335 335 335 335 334 333 331 330 330 328 325 322 320 315 306 300 300 300 300 307 316 319 322
321 321 329 339 333 331 332 323 320 322 317 313 317 318 319 320 316 315 316 316 315 315 317 318 319 322 320 319 324 324 322 330 331 332 333 334 336 336 337 339 342 342 341 341 341 343 342 343 343 343 343 341 340 339 339 337 335 334 333 334 333 332 332 334 335 334 333 332 332 333 334 334 334 334 335 335 335 335 334 333 331 331 330 327 324 322 319 312 304 300 300 299 304 314 319 320 323
318 319 327 336 331 331 331 320 317 319 317 315 315 317 320 318 314 315 317 315 314 315 316 313 315 317 320 324 330 321 315 326 331 331 333 336 337 336 338 339 341 342 342 340 341 343 342 342 342 343 343 342 340 339 339 338 335 334 334 334 333 332 333 334 334 334 334 334 334 334 334 334 334 334 334 335 335 335 334 332 331 331 330 326 323 321 317 310 302 299 299 299 306 315 318 320 324
319 319 325 333 329 325 321 318 321 319 316 317 315 317 320 316 314 315 316 315 314 316 315 314 317 318 321 326 325 317 312 322 329 330 333 337 338 337 338 340 341 342 342 341 342 341 341 341 342 343 342 342 341 340 340 338 336 334 334 333 332 332 332 334 334 335 335 335 334 334 334 334 335 334 334 335 336 335 334 332 331 331 329 325 323 321 317 310 302 299 299 299 304 312 316 320 323
323 325 334 340 332 322 319 320 322 321 317 318 316 318 319 316 316 316 316 315 314 316 314 314 321 320 319 321 320 315 311 320 328 329 333 338 340 338 337 340 342 342 341 340 340 340 341 341 341 342 342 343 341 340 340 338 336 334 334 334 332 330 330 332 334 335 335 335 335 334 334 335 335 335 335 335 335 335 334 332 331 331 328 325 323 321 317 312 305 299 299 300 303 311 316 319 321
322 329 345 342 329 325 325 322 319 322 319 317 316 316 317 315 316 316 317 316 315 316 314 313 319 320 319 319 319 314 311 319 328 330 332 337 340 339 339 340 342 341 340 340 340 340 342 342 341 342 342 342 341 341 340 338 336 334 334 334 333 330 329 331 333 334 334 334 334 334 334 334 335 335 335 335 335 335 334 333 332 331 328 325 323 321 318 316 310 303 299 299 302 309 315 319 320
328 334 348 328 320 328 327 321 320 323 319 318 317 315 314 314 317 318 317 316 316 317 314 311 314 319 320 319 316 312 311 320 328 331 332 335 339 340 341 341 342 342 341 342 342 342 343 342 341 340 341 341 341 341 340 338 336 334 334 334 334 331 330 331 331 333 333 334 333 333 333 334 334 335 335 335 335 334 334 333 332 331 328 325 323 321 319 319 316 309 302 299 299 304 311 316 319
326 338 352 324 315 324 322 320 320 319 318 322 320 316 315 314 318 318 317 317 316 316 313 309 312 319 319 316 317 316 313 319 330 333 330 333 337 339 342 342 342 343 343 344 344 344 344 343 340 338 340 342 341 341 340 339 337 335 334 334 334 332 331 331 331 332 332 333 333 333 333 333 334 335 335 334 334 334 333 332 332 331 327 325 323 321 321 321 319 314 308 302 298 299 303 308 312
319 336 347 327 317 320 320 320 322 320 320 323 317 316 317 313 315 316 317 318 315 313 311 310 311 315 317 317 320 319 314 318 330 333 329 330 334 338 340 341 343 343 343 343 343 342 341 339 338 337 338 340 340 341 340 339 339 337 335 334 334 334 332 331 331 331 332 332 332 333 332 332 333 334 334 334 334 334 333 332 331 330 327 325 323 322 323 322 320 317 314 308 303 299 298 299 302
325 339 342 328 318 318 319 319 322 321 321 323 316 314 317 313 314 315 313 314 314 313 314 315 312 313 316 318 316 314 314 320 330 331 328 329 332 336 337 339 340 340 341 340 340 338 336 336 336 339 337 339 340 340 340 339 339 337 336 335 334 334 334 332 331 331 332 331 331 332 332 332 333 334 334 334 334 334 333 332 331 329 327 326 324 323 324 323 320 318 316 313 310 305 300 297 297
334 343 340 327 319 319 318 318 320 323 324 323 317 315 318 315 314 313 310 314 318 317 316 315 312 311 315 315 313 314 315 322 330 329 327 328 330 331 332 335 336 336 337 336 337 335 334 336 336 339 339 340 341 339 338 338 339 338 337 336 334 333 334 333 332 331 331 331 331 331 331 331 332 333 334 334 333 333 333 331 331 330 327 326 324 324 324 323 321 318 316 314 313 311 306 301 298
343 341 334 322 318 321 320 320 319 322 324 319 317 317 318 317 315 313 312 317 318 316 317 315 315 312 312 314 314 316 317 323 330 328 325 324 325 327 328 329 331 332 333 333 334 334 333 335 335 336 337 338 340 339 339 339 339 339 337 337 335 334 333 333 333 332 331 331 330 331 331 330 331 333 334 333 332 333 332 331 331 330 328 327 325 325 324 323 321 318 316 314 313 312 310 306 303
341 340 333 325 324 321 319 322 318 317 320 319 318 316 316 317 317 314 313 317 315 316 318 315 319 317 314 314 315 317 319 325 329 326 323 320 320 322 323 324 326 327 329 330 331 332 332 333 333 334 335 336 338 339 338 338 338 338 337 337 336 335 334 334 333 333 332 331 331 331 330 330 330 331 333 332 331 332 331 330 330 329 328 327 326 326 324 322 320 318 316 314 313 312 311 310 309
329 335 330 326 328 322 316 320 320 318 318 319 318 314 316 316 315 314 315 319 315 319 322 318 322 322 318 315 313 316 319 323 325 323 320 317 317 318 319 321 322 323 324 326 327 329 331 331 332 333 334 335 337 338 337 337 337 337 336 336 337 336 335 335 334 333 333 332 331 331 331 331 331 331 332 332 331 331 331 331 330 329 328 327 326 325 324 323 320 318 316 315 314 314 313 312 312
320 327 326 322 322 320 316 318 320 318 316 319 319 315 317 315 314 314 316 319 317 319 322 321 325 324 321 316 312 314 316 317 318 319 317 315 316 316 317 318 319 320 320 322 323 325 327 329 331 332 332 334 335 336 336 337 336 336 334 335 336 336 336 335 335 334 334 333 333 333 332 331 331 331 332 332 332 331 331 331 330 329 328 327 326 325 324 323 320 318 317 316 316 316 315 314 313
318 319 320 320 317 316 317 318 317 316 315 319 319 316 316 314 314 317 317 319 320 319 317 318 322 320 318 316 311 312 313 313 314 314 314 314 314 315 315 316 316 317 317 318 319 321 323 326 329 331 331 332 333 334 335 335 336 336 334 335 336 336 336 336 336 335 335 334 334 334 333 332 331 331 332 334 333 331 331 331 330 329 328 327 326 325 324 323 320 319 318 317 316 316 316 315 314
321 317 316 320 318 316 318 319 317 317 318 319 319 316 316 315 316 317 316 318 319 315 312 313 316 314 313 312 311 314 312 310 312 312 313 314 314 314 314 314 315 315 316 316 316 317 319 321 325 329 331 331 333 334 335 334 335 338 336 336 337 337 337 337 337 336 335 334 333 333 332 332 332 331 332 333 332 331 331 330 330 329 328 327 325 324 324 322 320 318 318 317 317 316 316 316 315
325 320 317 318 317 317 318 319 319 319 320 320 318 314 315 318 317 314 314 319 316 310 308 308 309 310 310 312 312 312 311 309 311 312 313 313 313 313 313 314 314 313 313 313 314 315 316 318 321 325 330 331 332 333 335 334 336 338 337 337 338 337 338 337 336 336 334 332 332 333 333 333 332 332 333 333 331 331 331 330 330 328 326 326 325 324 322 320 319 318 317 317 317 317 316 315 315
324 319 318 318 317 318 318 318 320 320 318 317 316 316 318 319 315 313 317 321 314 309 308 307 309 310 312 317 315 308 308 310 311 311 312 313 313 313 313 313 312 311 311 312 314 315 316 317 318 321 327 330 331 332 334 334 336 337 337 337 337 336 337 336 336 335 334 332 332 333 334 333 332 332 332 332 331 331 330 329 328 326 324 325 324 322 320 319 319 317 317 317 317 317 315 314 314
320 318 319 318 317 318 317 317 320 319 317 315 315 318 318 316 313 314 321 320 312 310 312 312 313 315 316 318 313 307 307 308 309 311 311 312 312 312 312 312 311 312 311 312 314 315 316 317 317 318 323 328 330 332 333 334 335 336 336 336 336 336 335 335 335 334 333 333 333 333 333 332 332 331 332 331 331 331 329 328 327 325 324 324 323 321 320 319 318 317 317 317 317 317 315 314 314
317 319 319 318 319 318 317 318 319 318 317 316 315 318 318 314 313 316 320 315 311 314 315 313 316 318 316 315 311 308 307 308 309 310 310 311 312 312 312 311 312 313 312 313 315 316 318 318 317 318 322 326 328 331 333 334 334 334 335 334 334 334 333 333 334 333 333 333 333 332 331 331 331 331 331 331 331 330 328 327 327 327 326 325 323 321 320 319 318 318 317 317 317 316 314 313 312
315 318 317 319 321 319 317 317 318 316 315 317 315 316 317 313 314 318 319 312 311 317 316 313 316 317 314 314 311 307 306 308 309 309 310 311 312 312 311 311 312 313 313 314 316 317 319 319 319 321 323 326 328 331 332 333 334 334 334 333 332 332 330 331 332 331 332 332 331 331 330 330 330 330 330 330 330 329 328 327 327 326 326 324 323 321 320 319 319 318 317 317 316 315 313 311 311
315 317 317 323 327 322 318 317 317 315 315 318 315 315 318 315 315 318 315 311 311 315 316 314 315 315 313 313 311 308 306 307 307 308 310 311 312 311 310 311 312 313 313 315 317 318 320 321 322 323 325 326 328 330 331 332 334 333 332 332 331 330 329 330 330 330 330 329 329 329 329 329 329 330 330 330 330 329 327 327 327 325 324 323 322 321 320 320 319 318 317 316 315 314 312 310 309
316 316 316 323 326 325 318 313 315 314 315 318 315 317 325 324 319 316 311 310 312 315 315 314 314 314 313 312 312 310 306 305 306 307 310 311 311 311 311 312 313 314 313 315 319 320 321 323 324 325 325 327 329 330 330 331 333 332 331 331 330 328 328 329 328 328 327 327 327 327 328 328 328 328 328 329 328 328 326 325 325 323 322 321 321 321 321 320 319 318 317 315 313 312 310 308 306
319 314 321 325 319 327 325 313 315 315 314 316 315 317 323 324 321 316 310 309 314 316 315 313 313 313 312 312 311 312 307 304 306 307 309 311 311 311 311 312 314 314 314 316 318 320 321 322 324 325 325 328 329 329 329 330 331 330 329 329 327 327 328 327 327 326 325 325 325 325 327 327 327 327 326 327 326 325 324 323 322 321 321 321 321 321 320 320 319 317 316 315 312 310 308 305 304
328 315 325 330 317 329 332 315 315 316 314 312 314 319 319 319 319 315 310 309 313 316 314 311 312 312 311 311 310 311 308 304 306 307 309 311 312 311 311 313 315 315 315 316 318 319 320 322 323 324 325 327 327 327 327 327 328 326 326 325 325 327 326 325 325 326 325 324 324 324 325 325 325 324 324 325 324 323 322 321 320 320 321 321 320 319 319 319 318 317 314 313 311 307 306 304 302
335 320 322 332 321 324 326 317 315 315 315 312 313 320 322 320 317 311 308 310 312 314 314 311 311 311 310 309 309 310 308 306 305 306 308 310 311 311 311 314 314 315 316 316 318 319 319 320 321 323 325 325 325 326 324 325 324 322 323 323 323 325 323 323 324 324 324 323 323 323 323 323 323 323 323 324 323 322 321 320 319 318 319 320 319 318 318 316 316 314 310 309 309 306 304 303 301
332 321 319 329 325 320 323 323 317 312 315 315 313 316 318 319 317 312 309 309 311 313 313 312 310 309 309 308 308 308 308 309 306 304 307 309 311 311 312 313 313 315 316 315 317 319 318 318 319 321 323 323 324 323 321 323 322 321 322 321 322 323 320 321 322 322 322 322 322 322 322 322 322 322 322 322 322 321 320 319 317 316 317 317 316 314 312 309 309 308 306 305 306 305 304 302 300
332 325 322 326 322 319 322 324 317 312 314 315 315 315 315 315 315 316 313 309 311 313 311 311 310 309 309 308 308 307 307 308 305 304 306 308 310 311 312 313 312 313 314 314 316 318 318 317 317 318 319 320 321 319 319 321 320 320 320 318 319 320 319 319 320 320 321 321 321 321 322 321 321 321 320 321 321 319 318 316 315 313 313 314 312 308 304 302 303 304 304 304 304 304 303 302 300
333 331 330 329 324 322 324 324 321 315 314 316 316 315 315 314 313 316 314 309 310 311 310 310 310 309 309 308 308 307 307 306 304 303 305 306 309 311 311 312 311 312 312 313 315 316 316 317 316 315 316 318 317 315 317 320 318 317 316 315 316 317 317 317 317 319 319 320 320 320 320 320 319 319 319 319 319 317 316 314 312 310 309 308 305 301 299 300 302 303 304 304 303 302 301 300 300
327 329 329 327 325 324 324 325 323 315 314 319 318 315 315 314 314 314 313 311 310 310 310 310 310 309 309 309 308 307 307 305 303 303 304 305 307 310 310 310 310 310 310 312 314 314 314 316 316 314 314 315 315 314 315 317 317 316 315 314 314 315 316 315 315 316 318 318 317 317 317 317 317 317 317 317 316 316 315 312 310 307 304 302 300 297 298 301 303 303 304 303 303 301 300 299 299
321 323 324 324 325 324 320 320 320 314 315 322 320 316 314 313 313 313 313 314 313 312 311 311 310 309 309 309 309 308 306 304 302 302 302 304 307 309 309 309 309 309 309 311 312 313 313 314 315 314 313 312 314 314 314 315 316 316 316 314 314 315 314 314 314 315 316 315 314 315 315 315 315 315 314 315 314 314 313 311 308 304 300 298 296 295 297 302 304 304 304 302 302 301 299 298 298
318 321 320 322 324 322 322 322 317 314 315 322 324 318 315 315 313 312 313 314 313 311 311 311 311 310 309 309 309 308 308 306 304 302 301 303 306 307 308 308 309 309 309 309 310 311 311 311 311 312 310 310 311 311 312 314 313 314 314 312 313 314 312 312 312 313 313 312 312 313 313 313 313 313 313 313 313 313 312 309 303 299 297 296 295 294 295 299 302 304 304 302 301 299 298 298 298
319 321 320 323 324 322 326 326 318 315 316 320 323 319 314 315 315 315 313 311 311 312 311 311 311 311 309 309 309 309 308 306 305 303 301 301 304 306 307 308 308 308 308 307 308 309 309 309 308 308 307 308 309 308 310 311 311 311 310 309 311 312 309 309 309 308 308 309 310 311 311 311 312 312 312 311 311 310 307 302 297 295 295 294 294 294 293 294 297 300 301 301 301 299 296 295 297
323 322 320 322 323 321 324 325 321 323 323 320 320 320 321 321 318 317 316 314 313 313 313 312 310 310 310 310 310 308 307 306 304 304 301 301 304 305 306 308 307 307 307 307 307 308 308 308 307 307 306 307 308 307 309 311 310 309 306 305 306 306 304 304 305 304 304 306 307 308 308 308 308 308 307 307 306 303 299 295 294 294 294 293 294 294 293 292 293 294 295 296 297 296 293 291 292
325 325 321 320 322 322 321 322 322 326 332 323 318 325 334 333 324 318 319 320 318 315 313 314 312 310 310 311 310 308 307 305 304 304 302 301 303 305 306 307 307 307 307 306 306 307 307 307 306 306 305 305 306 307 309 311 310 310 309 307 305 302 299 298 301 302 302 303 304 304 303 303 303 303 303 302 299 296 294 293 293 293 293 293 293 293 292 291 291 291 291 292 292 292 292 290 289
326 328 324 320 319 321 320 322 322 328 332 321 319 329 331 328 327 326 326 326 325 320 317 315 313 311 310 309 309 309 307 305 304 303 301 301 303 304 306 307 307 307 306 306 306 305 306 306 305 305 304 304 304 305 307 308 308 307 310 311 310 307 302 298 299 301 302 301 301 300 299 299 299 299 298 296 294 293 293 293 293 293 292 292 292 292 291 290 290 290 290 290 290 290 291 290 288
329 327 325 322 319 320 321 322 323 327 328 321 323 331 327 324 325 327 329 329 328 325 321 318 315 313 311 309 309 309 307 305 304 303 302 301 303 304 306 306 306 307 306 306 305 304 305 305 304 304 304 304 305 306 307 308 308 307 308 310 309 309 308 303 299 299 299 298 296 295 294 294 294 294 293 292 292 292 292 292 292 292 292 291 291 290 290 290 290 289 289 289 289 289 290 289 288
328 321 321 323 322 323 323 323 324 324 325 324 325 325 326 328 324 323 325 325 327 325 323 322 319 316 312 309 309 309 307 304 303 303 302 301 303 305 306 306 306 307 306 305 305 305 304 304 304 304 303 304 305 306 307 308 308 308 309 310 308 305 305 302 298 295 294 293 292 291 291 291 291 291 292 292 292 292 292 292 292 291 290 290 290 290 289 289 289 289 289 289 289 288 288 288 288
321 317 321 324 324 326 327 328 328 327 327 328 327 324 327 330 327 325 323 323 328 325 322 321 320 320 317 312 310 309 307 304 303 303 301 301 303 304 305 306 306 306 306 305 305 305 304 303 303 303 302 303 304 304 305 306 306 307 308 310 309 304 300 297 294 292 291 290 291 290 290 291 291 291 291 291 291 291 291 291 290 290 290 289 289 289 289 289 288 288 288 288 288 288 287 287 287
317 322 329 329 330 331 332 331 328 329 330 328 329 326 326 330 330 328 325 325 329 327 325 326 324 324 322 314 310 309 306 304 303 302 301 301 302 304 305 305 305 306 305 305 305 305 304 303 303 302 302 303 304 303 304 305 306 306 308 310 309 304 299 295 291 290 289 290 290 290 290 290 290 290 290 291 290 290 290 290 289 289 289 289 289 289 288 288 288 288 288 287 287 287 286 286 286
322 333 334 330 332 331 331 331 328 331 331 327 325 323 323 327 328 328 326 324 325 324 325 329 330 330 326 316 309 307 305 303 303 303 301 300 300 301 303 303 303 304 304 303 304 305 304 304 303 303 302 303 304 304 304 305 305 305 307 307 307 305 300 295 291 290 289 290 290 289 290 290 290 290 290 290 289 289 289 289 289 289 288 288 288 288 288 287 287 287 287 286 286 286 286 286 285
324 333 330 328 331 331 331 331 329 330 328 321 319 320 322 325 325 326 324 321 322 320 320 322 325 327 326 318 309 305 304 303 302 302 302 300 299 299 301 302 302 302 303 302 303 303 304 304 304 303 303 303 304 304 304 304 304 305 305 305 305 303 299 295 291 290 290 290 290 290 290 290 289 289 289 289 289 288 289 288 288 288 288 288 288 287 287 287 287 287 286 286 286 285 285 285 285
323 326 328 330 331 330 332 331 329 330 326 319 316 321 324 326 326 325 322 320 321 321 320 319 318 318 319 316 309 305 304 303 302 302 301 300 299 299 300 301 301 301 302 302 301 302 302 302 303 303 303 303 303 302 301 302 303 303 303 303 302 300 297 293 291 290 290 290 291 290 290 290 290 289 289 289 288 288 288 288 288 288 287 287 287 287 287 286 286 286 286 286 285 285 285 285 284
321 324 326 329 331 333 334 332 331 332 329 320 316 322 328 331 330 325 321 322 322 323 322 317 314 313 311 310 307 305 303 302 301 301 301 300 299 299 300 301 301 301 301 301 300 301 301 300 301 302 301 300 300 300 300 301 302 302 301 300 299 297 295 292 290 290 290 290 291 291 291 290 290 289 289 288 288 288 288 288 288 287 287 287 287 287 286 286 286 286 285 285 285 284 284 284 284
321 324 325 327 329 330 331 328 325 327 328 324 320 323 328 329 326 320 319 321 321 320 320 318 317 313 309 309 308 305 303 302 301 301 301 300 299 299 300 300 300 300 300 300 300 300 299 299 299 300 300 299 299 300 300 300 301 300 299 297 296 294 292 291 290 290 290 291 291 291 291 290 290 289 288 288 288 288 288 287 287 287 287 287 286 286 286 286 286 286 285 285 285 284 284 284 284
322 321 323 324 323 324 327 325 320 321 326 327 323 325 327 326 324 321 320 320 318 318 318 318 318 315 312 312 308 304 302 301 300 301 300 299 298 299 300 300 299 300 299 299 300 300 299 299 298 298 298 297 298 300 299 299 299 298 296 294 293 292 291 291 290 290 290 290 291 291 291 290 289 289 288 288 288 287 287 287 287 287 286 286 286 286 286 286 285 285 285 285 285 284 284 284 283
323 324 324 320 320 326 330 329 326 325 328 328 324 326 327 326 327 326 322 322 325 325 321 318 316 316 315 312 307 304 302 301 301 300 299 298 298 298 299 299 299 299 299 299 299 299 299 299 299 298 296 296 297 298 298 298 298 297 295 293 292 291 291 291 291 291 290 290 290 290 290 289 288 288 288 288 287 287 287 287 287 287 286 286 286 286 285 285 285 285 285 285 285 284 284 284 283
321 327 324 322 328 330 327 328 330 329 330 330 327 324 323 322 325 326 323 323 328 328 326 324 320 317 314 310 306 304 303 301 301 300 299 298 297 298 298 298 299 299 299 299 299 298 298 298 298 298 297 297 297 297 297 297 297 296 294 292 291 290 290 290 291 291 290 290 290 289 289 289 288 288 287 287 287 287 287 287 286 286 286 286 285 285 285 285 285 285 285 285 284 284 284 284 283
317 320 319 321 327 328 326 328 329 330 332 331 329 326 325 324 325 326 324 323 325 326 330 332 324 315 312 309 306 304 303 301 300 299 299 298 297 297 297 298 298 298 298 299 298 297 297 297 297 297 297 296 296 296 296 296 296 295 293 291 290 289 290 290 290 290 290 290 290 289 289 288 288 287 287 287 287 287 286 286 286 286 285 285 285 285 285 285 285 285 285 285 284 284 283 283 283
318 320 321 320 321 322 325 325 325 329 332 331 330 328 327 328 324 324 325 326 328 328 329 331 323 315 313 310 306 304 302 301 300 299 299 297 296 296 297 297 297 297 298 298 297 297 297 297 296 296 296 295 295 295 295 295 294 293 291 290 289 289 289 290 290 290 290 290 289 289 289 288 288 287 287 287 287 286 286 286 286 286 285 285 285 285 285 285 285 285 284 284 284 284 283 283 283
320 321 321 320 320 322 325 325 324 325 327 328 330 327 326 331 326 323 325 329 331 325 322 326 321 314 315 312 306 303 302 300 300 299 299 297 295 295 296 296 297 297 297 296 296 296 296 296 296 295 296 296 295 295 295 295 293 292 290 290 289 289 289 289 289 290 290 289 289 289 288 288 287 287 287 287 287 286 286 285 285 285 285 285 285 285 285 285 285 285 284 284 284 284 283 283 283
Wind_Speed
7 6 6 5 3 2 2 4 2 2 4 2 2 1 2 2 2 2 0 2 1 2 2 2 3 3 3 4 6 6 4 3 4 3 2 4 5 5 8 7 8 9 12 15 15 15 14 14 15 14 14 13 13 14 14 14 14 14 13 12 12 12 11 11 12 12 12 12 12 12 12 13 14 14 14 14 14 14 14 14 15 17 19 21 21 20 20 19 19 19 17 16 13 11 9 7 9
7 5 5 3 1 0 1 3 3 3 5 2 2 2 3 3 0 4 3 1 3 2 1 6 8 7 6 5 5 5 3 0 3 3 1 2 5 4 5 6 9 12 14 16 15 14 15 15 15 14 14 13 13 13 14 14 14 13 13 13 13 13 12 11 11 12 11 11 11 11 11 12 13 13 13 13 13 13 14 14 15 17 19 20 20 20 20 20 19 19 18 16 15 13 11 9 8
8 4 3 1 1 3 1 4 3 1 5 2 3 3 2 1 4 6 5 4 4 5 3 5 6 5 4 4 4 4 2 1 1 1 1 2 4 4 4 5 10 14 14 16 15 13 14 14 13 14 13 12 12 13 13 14 13 13 13 13 13 13 13 11 11 11 11 11 10 10 11 11 11 12 12 12 12 13 13 13 14 15 17 18 18 19 20 20 19 19 18 17 16 14 13 11 8
7 3 2 3 1 4 4 4 2 4 3 3 3 4 2 4 7 6 6 5 4 4 2 2 4 2 3 5 2 1 0 2 1 0 1 1 3 4 6 7 12 15 14 15 16 14 13 13 12 13 13 12 12 12 12 13 13 13 13 13 13 14 14 12 11 11 11 11 10 10 10 10 10 11 11 11 12 12 12 12 13 14 15 16 17 19 20 19 18 18 17 16 15 15 14 13 10
5 2 3 2 2 2 4 3 2 5 3 4 3 5 5 6 7 6 5 4 4 4 4 3 2 2 3 3 0 1 1 3 2 2 1 1 3 5 7 9 13 15 14 15 16 14 13 12 12 12 13 12 11 11 11 12 12 13 13 12 12 14 15 13 12 11 12 11 11 10 10 10 9 10 10 11 11 11 11 11 12 13 14 16 18 19 20 19 17 17 16 15 15 14 15 14 12
3 2 5 5 3 1 3 3 3 2 4 5 4 5 6 6 7 5 2 2 1 2 4 3 3 2 2 1 0 2 2 3 4 4 2 1 2 5 8 10 13 14 14 15 15 14 14 13 12 12 13 13 11 11 11 11 11 12 12 11 12 13 14 14 12 11 11 11 10 10 10 9 9 9 10 10 10 10 10 10 11 13 15 17 18 20 19 18 17 16 15 15 15 14 15 15 14
2 1 4 6 3 2 3 3 4 2 3 5 4 5 6 7 6 4 1 1 3 3 2 2 4 6 2 2 0 0 2 3 4 3 2 1 2 5 8 11 13 14 14 14 15 15 13 13 12 12 13 13 12 11 10 9 10 11 11 11 11 12 14 14 12 11 11 11 10 9 8 8 8 8 9 10 9 10 10 11 12 13 15 17 19 19 19 17 16 16 15 14 15 15 15 16 15
3 1 1 5 3 4 4 2 3 2 1 3 4 5 7 7 5 4 2 1 1 2 3 1 2 5 0 1 0 2 3 3 3 1 1 1 3 6 8 11 13 14 14 13 15 14 13 12 11 11 12 13 12 11 10 9 9 10 10 10 10 11 13 13 11 11 10 10 9 8 8 7 7 7 8 9 9 9 10 10 12 13 16 17 18 19 18 17 16 16 15 14 15 16 16 16 16
5 3 1 5 3 3 3 2 0 2 2 3 4 4 4 4 3 3 2 1 0 1 1 3 0 2 1 2 1 4 3 3 2 1 0 1 3 7 9 11 12 13 13 13 14 15 13 12 11 10 10 12 13 11 10 9 8 9 10 10 10 11 11 11 11 11 10 9 8 8 7 7 6 7 7 8 8 8 9 10 11 13 15 17 17 18 17 16 16 16 15 14 15 16 16 16 15
4 4 2 4 3 3 3 0 1 1 3 4 3 5 4 4 3 2 3 2 0 2 1 2 3 2 3 3 2 2 2 2 1 1 2 1 2 7 10 12 11 11 11 12 14 14 12 11 12 11 10 11 13 12 11 10 9 9 9 9 9 11 11 11 11 10 9 8 8 7 6 6 6 6 7 8 8 8 9 10 10 13 15 16 16 17 17 16 16 16 15 15 15 16 16 15 15
3 4 3 4 4 3 2 3 3 3 4 3 3 6 5 5 4 2 2 3 0 1 2 1 3 3 4 1 3 1 1 2 1 3 4 3 2 7 12 13 12 11 10 11 14 14 13 12 12 11 11 11 13 13 12 11 10 9 10 9 9 9 11 11 11 9 8 8 7 6 6 6 6 6 7 7 8 8 8 8 9 12 13 14 15 16 17 17 17 16 16 15 15 15 15 14 14
2 3 4 4 3 3 4 5 4 3 5 3 1 5 3 5 5 3 3 4 1 1 2 0 3 5 4 2 3 2 1 1 2 4 6 5 4 7 12 15 14 13 11 11 14 14 12 11 12 10 10 12 13 14 13 11 10 10 11 10 9 9 10 10 10 9 8 7 6 6 6 5 6 7 7 7 7 8 7 7 8 10 11 13 15 16 16 17 18 17 16 15 15 15 14 14 13
4 2 5 3 3 4 4 5 3 1 4 3 4 3 3 4 5 7 7 4 1 3 1 2 3 5 3 3 2 2 1 4 5 5 7 7 7 8 12 15 15 15 13 14 16 15 13 12 11 9 10 11 11 13 13 12 11 10 11 11 11 10 10 10 9 9 7 6 6 6 5 5 6 7 7 7 7 7 6 6 7 9 11 12 14 15 16 17 18 18 17 16 15 14 14 13 12
3 3 5 3 2 3 5 3 2 3 3 5 3 3 1 2 4 6 8 5 1 3 1 3 4 4 2 2 2 4 3 6 7 7 7 9 9 9 12 14 15 15 14 15 17 15 15 13 9 8 9 11 12 13 15 14 13 11 11 11 12 11 11 10 10 9 8 6 6 6 6 6 6 7 7 7 7 6 5 5 6 8 10 12 13 14 15 17 17 17 17 16 15 14 14 13 12
3 3 5 4 2 2 3 2 3 5 5 4 2 2 1 1 3 4 5 6 3 3 2 3 3 1 3 5 4 5 7 9 10 8 8 10 11 11 13 14 15 16 13 12 13 12 12 11 9 10 12 12 13 13 14 15 14 12 12 11 12 12 11 11 10 9 8 7 6 6 6 6 7 7 7 7 7 6 5 5 6 8 10 11 12 13 15 17 17 17 16 16 15 14 14 13 13
3 4 5 4 2 2 4 2 3 3 5 5 2 1 4 1 2 3 3 4 3 3 3 1 3 1 3 4 4 4 11 11 12 10 10 12 13 13 13 13 14 15 14 12 12 12 11 11 10 12 16 15 15 14 12 13 13 13 13 12 12 13 12 11 10 9 8 8 7 6 6 6 7 7 7 7 7 5 5 5 5 7 9 10 11 12 14 16 16 17 17 17 16 15 15 15 14
3 4 5 3 3 4 5 4 4 4 5 5 4 1 5 2 2 2 1 5 4 3 4 1 3 2 1 1 1 5 11 13 15 13 12 14 14 14 14 13 13 12 13 12 13 14 12 11 9 11 16 16 14 13 12 12 12 14 13 13 13 12 13 12 11 10 9 8 7 7 6 6 7 7 8 7 7 6 5 5 4 6 8 9 10 10 13 15 16 17 17 17 17 17 16 16 16
5 4 4 3 4 4 5 7 7 4 4 6 4 3 7 4 2 1 2 7 4 3 4 3 5 4 2 1 3 6 13 16 16 15 13 13 12 13 12 12 12 11 11 11 12 13 12 9 10 11 11 13 14 13 12 11 11 13 12 12 13 12 13 13 12 11 10 10 9 8 7 7 7 8 8 8 8 8 7 6 5 6 7 8 9 9 12 14 15 17 17 17 18 18 18 19 18
4 3 4 3 6 4 5 7 7 3 3 5 3 3 5 5 4 2 1 2 2 2 3 4 5 3 1 3 5 9 14 17 16 15 13 12 11 12 11 10 11 11 11 11 11 12 13 11 13 14 8 8 13 14 12 11 11 12 12 12 13 13 13 12 12 12 11 10 9 8 8 8 8 9 9 9 9 9 8 7 7 7 6 5 6 8 11 13 15 17 17 18 19 20 21 21 21
2 4 3 4 6 3 4 6 7 5 4 6 3 2 3 4 4 2 3 3 2 3 4 1 3 5 4 1 5 10 13 14 15 15 13 11 10 10 10 10 10 10 11 11 12 12 13 13 15 17 12 7 11 14 13 12 12 12 11 11 13 14 14 13 12 11 11 10 9 8 9 8 8 9 9 10 9 10 9 9 9 9 5 4 5 7 10 11 13 16 17 18 19 21 22 22 22
2 4 3 5 4 1 4 6 6 4 4 7 4 4 2 3 3 2 5 5 4 7 7 7 8 9 8 5 5 10 12 13 13 13 13 11 10 9 9 9 9 10 10 11 12 12 13 14 16 17 15 11 11 14 15 14 13 13 12 11 12 14 14 14 13 12 11 9 9 9 8 7 8 9 9 11 10 11 12 11 11 9 6 6 6 7 9 9 12 15 15 17 18 20 21 22 21
3 1 4 5 4 2 4 5 4 3 4 5 5 4 3 2 1 4 8 6 6 6 7 8 8 10 11 8 8 9 11 11 11 12 13 11 10 9 8 8 8 9 9 11 12 13 14 14 16 17 16 14 13 14 15 16 17 15 15 14 13 15 16 15 15 13 12 11 10 9 8 8 9 9 10 14 14 14 14 14 12 10 9 8 7 8 8 8 11 14 15 17 17 17 19 20 20
3 1 1 4 4 2 2 3 4 5 6 5 5 3 2 2 2 3 8 8 7 4 5 6 6 11 14 11 10 8 8 9 10 11 12 12 11 9 8 8 8 8 9 11 12 12 14 15 16 17 18 17 15 14 15 17 17 18 19 17 14 16 17 15 15 14 13 12 10 9 8 8 9 7 8 14 16 17 17 15 13 12 11 10 9 10 9 9 11 13 15 16 16 16 17 18 18
5 1 1 2 4 3 2 3 4 5 6 6 4 2 3 6 4 1 5 8 4 3 1 6 10 14 15 10 8 8 9 9 10 11 11 11 10 9 8 7 8 9 9 9 10 11 13 15 17 18 19 19 17 15 15 17 17 18 18 15 15 17 17 15 14 14 13 12 9 8 8 9 9 7 8 11 11 14 18 16 15 14 14 13 12 11 11 12 12 13 15 16 16 15 15 16 17
5 2 2 1 2 3 1 2 1 3 4 3 5 3 5 6 3 0 6 7 1 2 5 9 11 12 10 8 7 8 9 10 10 10 10 10 9 8 8 7 7 7 6 6 7 8 10 13 15 17 19 20 20 16 16 17 15 15 16 14 16 18 16 16 16 14 13 12 10 9 9 9 10 10 10 8 7 12 17 17 17 17 16 14 14 14 13 14 13 13 15 16 16 15 15 16 16
1 3 2 0 2 4 1 0 2 2 1 3 4 4 5 3 1 3 7 6 4 5 6 6 8 8 6 6 7 8 9 10 12 11 11 10 9 9 8 7 6 5 4 4 5 5 6 9 12 14 17 19 20 17 16 16 13 15 16 17 18 16 16 17 17 15 15 15 13 11 10 9 10 10 10 8 8 12 14 14 15 16 15 14 15 16 15 14 14 14 15 16 16 15 15 15 15
2 3 1 1 1 5 0 3 4 1 2 3 5 6 4 3 1 4 5 5 5 7 6 4 7 7 6 5 6 9 9 11 13 12 11 11 10 10 9 7 7 6 4 4 5 5 4 5 8 12 15 16 18 18 17 17 15 14 15 16 17 17 18 18 17 15 14 14 12 10 9 7 8 9 10 9 9 11 11 11 11 12 13 15 16 16 15 14 14 14 15 16 16 15 15 15 16
2 3 1 3 5 5 1 3 5 1 2 5 7 5 3 3 2 6 5 5 6 8 7 5 6 6 5 5 5 7 9 12 13 13 13 13 13 11 9 9 8 7 6 6 6 6 5 5 7 12 15 16 17 18 19 19 16 15 15 13 14 16 18 18 16 15 14 13 12 10 9 8 6 7 9 10 10 11 11 11 12 12 14 17 16 15 15 14 13 13 14 15 15 15 15 16 16
1 3 1 6 8 6 4 3 3 4 3 5 7 3 5 4 7 7 3 6 6 7 7 5 6 5 5 6 5 6 8 11 12 13 14 13 12 11 10 10 9 8 7 8 7 7 7 8 11 14 17 17 17 19 21 21 19 18 18 15 14 16 17 16 15 15 14 13 12 10 9 7 6 7 9 12 11 12 13 13 15 16 18 19 17 15 14 12 12 13 14 14 15 14 16 17 17
0 3 2 4 7 6 5 1 2 5 3 4 5 3 6 8 10 5 2 7 8 6 7 6 6 5 5 5 5 5 7 11 13 14 14 13 12 11 11 10 9 8 8 9 9 9 9 11 15 17 18 18 18 20 22 22 21 20 19 18 18 18 18 16 16 14 14 13 10 8 9 9 9 10 12 13 12 14 15 16 18 20 20 19 18 15 13 12 12 13 13 13 14 14 17 18 18
1 1 2 2 2 5 7 1 4 5 2 2 5 3 7 9 9 5 5 8 9 8 8 7 6 5 5 5 5 5 7 11 13 14 14 13 13 12 11 11 10 9 9 10 10 10 12 13 17 18 19 19 19 21 22 21 21 21 21 22 22 21 18 17 17 14 13 12 8 7 11 14 13 13 15 14 14 16 17 19 20 20 20 18 17 15 13 13 12 12 13 13 14 16 19 21 21
3 1 3 3 2 5 9 2 6 5 0 1 5 3 8 9 8 4 5 7 8 9 8 7 7 7 6 6 6 5 6 10 12 14 15 14 14 13 11 12 12 11 10 11 11 12 13 15 18 19 20 20 21 22 22 22 23 24 24 24 24 22 20 19 18 14 12 11 8 10 14 16 16 15 16 15 16 19 19 20 21 20 18 17 16 15 13 12 11 12 12 12 15 20 22 23 24
4 0 3 3 2 3 7 3 3 3 2 0 3 3 5 5 5 3 4 6 7 7 7 8 8 8 7 6 6 5 5 7 10 13 15 15 15 13 12 13 13 12 11 12 13 14 14 17 19 19 20 21 21 22 23 24 24 24 24 23 23 22 22 21 18 16 14 11 10 14 15 15 15 15 16 16 17 20 20 21 21 19 17 15 15 14 12 12 11 12 14 14 17 22 24 25 26
3 1 2 4 3 2 3 4 4 1 3 3 4 4 7 7 3 1 4 6 6 8 9 9 8 8 7 6 6 6 6 6 8 13 17 16 15 13 14 14 13 13 13 12 14 15 15 17 19 19 21 21 21 22 24 24 23 23 22 22 21 21 21 20 19 17 15 13 14 17 17 15 15 16 17 17 19 20 20 20 20 18 17 15 14 13 13 13 12 13 18 20 20 23 25 26 26
3 3 2 3 3 3 4 5 2 3 2 4 5 6 12 13 7 3 6 6 8 11 10 8 8 8 7 7 7 7 8 7 9 14 18 17 16 15 16 15 14 14 14 13 14 16 15 16 18 20 21 22 23 23 23 22 22 22 22 21 21 20 20 20 19 18 17 17 18 18 17 17 17 18 18 18 18 20 20 20 19 18 16 15 15 15 15 16 16 17 21 25 24 24 25 26 26
6 6 5 4 4 4 5 6 5 4 3 5 7 8 12 14 12 8 7 7 8 10 8 7 7 8 7 8 8 8 9 8 10 16 18 17 17 17 17 16 15 14 14 15 15 17 17 17 18 20 21 22 24 25 24 23 22 22 21 21 21 20 21 21 21 20 19 20 20 19 19 18 18 19 20 19 19 20 20 20 20 18 16 16 17 18 19 18 19 22 24 26 26 27 27 27 26
5 5 4 4 4 5 5 5 6 2 4 6 9 10 12 12 12 10 5 6 8 10 10 10 9 8 8 10 11 10 9 7 10 16 18 18 18 18 17 16 15 15 15 16 17 18 19 19 19 20 21 22 23 24 24 25 24 23 22 22 22 21 21 22 22 21 21 21 21 21 20 19 18 19 20 20 20 20 20 20 19 19 18 18 19 20 20 20 21 23 26 26 26 28 28 26 25
3 4 3 3 3 5 7 4 5 1 4 6 6 8 12 12 12 10 4 6 10 13 13 14 13 11 10 12 13 10 6 5 9 14 17 18 18 18 18 17 17 17 17 17 18 19 19 20 21 21 22 22 22 23 24 24 24 23 24 24 24 24 22 22 23 22 22 22 22 22 20 20 19 19 20 20 21 20 20 20 19 20 20 20 21 21 20 20 22 22 24 25 26 26 25 24 23
2 3 2 3 3 4 7 5 4 1 4 5 6 7 10 11 12 11 7 10 12 12 14 15 14 13 12 13 12 9 8 7 9 11 15 18 19 19 19 18 19 19 19 19 19 20 20 21 22 22 23 23 23 24 25 25 25 25 25 26 26 25 24 23 24 23 23 23 23 21 20 21 20 19 20 20 20 19 19 20 20 21 21 21 22 22 21 20 20 20 21 23 24 24 20 18 17
3 3 3 4 3 2 4 5 4 1 2 3 5 7 8 8 9 10 13 13 9 10 13 14 12 13 14 12 11 11 12 12 10 10 12 16 19 19 19 20 20 20 20 20 20 21 22 22 23 23 23 24 24 25 25 26 27 26 27 27 27 27 26 25 24 24 23 23 22 21 20 21 20 19 19 19 19 19 20 21 22 22 21 20 20 21 21 20 19 19 18 19 21 21 17 12 9
4 5 6 5 5 6 6 4 5 3 3 3 4 8 8 7 9 12 10 6 6 10 12 12 12 11 10 9 10 12 13 13 13 12 12 15 19 20 20 21 21 21 22 22 22 23 23 24 24 24 24 24 25 25 25 27 28 28 29 28 27 27 27 25 26 25 23 23 22 21 21 21 21 21 20 21 21 22 23 23 22 22 21 20 19 20 20 20 19 17 16 16 16 17 17 15 11
5 5 9 10 8 8 5 3 5 4 5 4 4 5 7 4 7 10 6 2 7 10 10 13 14 9 7 9 10 11 10 11 12 12 13 16 18 19 21 22 22 22 23 23 24 23 24 25 25 25 25 25 26 26 27 28 30 31 32 31 29 29 27 25 26 26 25 24 23 22 22 22 23 24 24 23 24 24 23 22 21 20 20 19 18 18 20 19 19 17 15 14 14 14 16 18 17
4 5 9 11 8 5 5 1 1 1 4 3 3 0 7 6 5 8 6 6 10 10 9 13 12 8 9 10 9 9 10 10 9 11 13 16 19 21 22 23 23 24 24 24 24 24 25 26 26 27 27 27 27 27 29 31 32 33 33 32 31 31 29 25 25 27 25 25 25 25 25 26 26 26 26 25 24 23 22 21 20 19 19 18 18 18 20 19 19 18 16 15 15 13 12 16 17
4 4 5 8 7 6 6 5 3 3 3 4 2 3 5 10 5 6 7 7 11 12 11 11 10 9 10 9 9 9 11 11 11 11 12 16 21 23 23 24 24 25 26 25 25 25 25 27 27 27 28 28 27 28 30 32 33 32 30 30 30 30 28 27 27 27 27 28 29 29 29 29 28 27 26 25 24 22 21 21 20 19 19 19 19 19 20 19 18 18 16 15 15 12 10 13 15
5 3 5 6 6 5 4 5 3 1 2 4 1 4 3 10 4 1 2 6 10 13 13 12 11 9 9 9 8 9 9 11 12 12 13 17 22 24 25 25 25 26 27 27 27 26 25 26 27 27 28 29 29 30 32 32 32 30 29 28 27 26 26 28 30 30 31 32 32 32 31 30 29 27 26 25 23 22 21 20 20 20 20 20 20 20 20 19 18 17 16 15 14 14 12 12 13
4 5 7 6 5 4 5 4 3 3 3 5 6 6 3 8 3 3 1 3 9 11 10 11 9 6 7 9 9 8 8 9 10 11 14 19 23 24 25 25 25 26 28 27 28 27 27 26 26 27 27 29 32 33 34 33 31 29 27 26 25 26 28 31 33 34 34 34 34 33 31 30 29 27 26 24 23 22 21 21 21 21 21 20 20 20 20 19 18 17 16 15 14 14 13 12 13
5 6 6 7 5 5 4 2 4 2 5 6 9 11 7 6 3 4 3 4 7 8 7 8 7 5 6 7 8 8 8 8 9 9 12 17 21 23 25 25 26 27 28 28 28 29 29 28 28 28 28 29 33 34 33 32 29 27 25 24 25 28 33 36 37 37 36 36 35 34 32 31 29 27 26 25 23 23 22 22 21 21 21 20 20 20 19 18 18 17 17 16 15 15 14 13 13
5 5 4 4 4 4 4 4 4 1 6 4 6 9 9 8 6 3 5 6 5 7 6 8 8 7 6 6 7 8 8 9 9 8 10 14 17 20 23 25 26 28 28 29 30 31 31 31 30 30 30 31 34 34 32 30 28 26 25 24 27 30 36 40 41 41 39 38 37 35 33 31 29 28 26 25 24 23 23 22 22 21 21 20 20 19 18 18 17 17 16 16 15 15 14 13 13
4 5 6 3 2 3 2 3 0 3 6 3 1 3 5 9 7 6 11 12 10 8 8 8 9 8 7 6 7 7 7 9 10 9 10 11 14 19 23 25 26 28 30 30 31 31 31 31 31 31 32 33 34 34 32 30 27 26 26 26 29 34 38 42 43 42 41 39 38 37 35 33 31 30 28 26 25 24 23 22 21 21 20 20 19 19 18 17 16 16 16 15 15 14 13 12 12
6 6 6 5 2 1 3 3 2 4 5 3 0 2 3 6 4 8 15 15 10 7 8 9 8 8 7 6 7 7 8 9 10 10 11 11 15 21 24 26 27 29 30 31 31 32 32 32 32 33 34 34 35 34 32 29 27 26 27 29 33 38 41 43 43 42 41 39 38 37 36 34 33 31 29 27 26 24 23 22 21 21 20 20 19 18 18 17 16 15 15 15 15 14 12 11 11
5 4 5 5 5 4 4 4 4 4 4 4 2 2 3 2 3 7 10 9 8 6 6 6 6 7 6 4 6 7 8 9 8 9 11 12 18 24 26 27 29 30 31 31 32 33 33 33 34 34 35 35 35 34 31 30 28 28 29 32 36 40 43 43 42 41 41 39 38 36 35 33 32 31 29 28 26 25 23 22 22 21 20 20 19 18 17 17 15 15 14 14 14 13 11 11 11
3 2 4 3 5 5 3 3 5 3 2 3 2 4 4 4 6 8 7 9 8 7 6 6 7 5 3 4 6 7 8 8 8 9 10 13 19 24 26 28 29 30 32 32 34 35 35 34 35 35 36 36 35 34 32 31 30 30 32 36 39 42 43 43 42 41 40 38 37 36 34 32 31 30 30 28 27 25 24 24 22 21 21 20 19 18 17 16 15 14 14 13 13 13 10 10 10
2 2 4 4 4 5 2 2 1 3 3 4 3 5 5 3 8 8 6 10 10 9 9 9 8 3 3 5 6 7 8 8 9 10 10 12 18 23 26 28 29 31 32 34 35 36 36 35 35 35 35 35 35 34 33 32 31 33 35 38 41 43 43 43 42 41 39 38 36 34 33 32 32 31 30 29 28 26 25 24 23 22 21 20 19 18 17 16 15 13 13 12 12 12 10 10 9
5 4 6 2 2 2 2 2 2 2 4 5 3 6 6 2 6 5 3 5 10 10 9 9 8 4 5 6 6 6 7 7 8 8 9 12 18 22 25 27 30 32 34 34 35 35 35 35 36 36 36 36 36 35 34 33 33 35 38 40 42 43 43 43 42 40 39 38 37 35 34 33 32 32 31 30 29 28 26 25 24 23 22 21 20 18 17 16 15 13 13 12 12 11 10 9 8
4 4 4 4 2 1 2 2 3 2 4 5 2 4 5 6 6 4 3 6 9 10 8 8 9 7 6 6 6 6 6 7 8 8 9 11 17 22 24 26 28 30 32 33 33 33 32 33 35 37 36 36 35 34 34 34 35 37 40 41 42 43 43 42 41 40 39 39 37 36 35 34 33 32 31 30 29 29 28 26 25 24 23 22 20 19 18 16 14 13 13 13 12 11 9 9 8
3 2 2 2 2 3 4 3 2 3 2 4 3 4 4 7 7 7 11 11 9 10 9 8 9 7 6 6 6 7 8 8 8 9 9 10 15 21 23 26 28 30 31 31 31 31 32 33 34 36 36 35 35 35 35 36 37 38 40 41 41 41 42 41 41 40 40 38 37 36 35 34 34 32 31 30 30 29 28 28 26 25 24 23 21 20 18 16 15 14 13 13 12 11 9 9 8
3 4 4 3 1 2 1 1 2 4 3 2 4 6 6 4 4 8 11 10 9 9 8 8 8 5 6 7 7 8 8 8 8 9 8 9 14 19 21 24 26 28 29 30 30 31 32 33 34 35 36 36 36 37 37 37 38 39 41 42 41 41 41 41 41 40 39 38 37 36 35 35 34 33 31 31 30 29 29 28 27 26 25 24 22 21 19 17 16 15 14 13 12 12 10 9 8
6 7 8 9 7 4 2 3 2 3 3 4 3 8 9 4 4 7 8 8 7 7 6 8 8 5 6 7 8 9 8 8 8 8 8 9 13 18 20 22 24 26 27 28 29 29 31 33 34 34 36 36 37 38 38 38 38 39 40 41 41 41 41 41 41 40 39 39 38 37 36 35 34 33 32 31 30 30 29 28 28 26 25 24 23 21 20 19 17 17 16 14 13 12 11 10 9
Wind_Direction
344 333 312 302 307 283 351 56 74 343 70 81 331 57 236 229 217 181 19 314 46 337 302 47 47 56 83 112 143 144 122 143 164 128 184 209 110 137 185 188 188 183 178 177 175 170 160 153 148 146 148 139 132 131 133 134 133 133 132 130 126 120 116 115 112 109 107 102 98 96 94 94 94 92 91 89 88 85 81 77 70 63 58 52 49 47 46 44 41 39 38 38 41 49 59 79 98
343 329 317 301 347 105 237 67 91 343 56 77 295 163 253 320 255 177 179 212 147 183 101 83 75 60 64 95 113 92 60 69 175 171 223 149 104 121 170 185 190 185 179 178 180 170 158 159 155 147 145 136 130 131 131 134 135 134 135 135 131 126 121 117 112 110 108 103 101 99 97 97 96 95 93 91 90 86 79 74 68 62 56 51 48 46 45 45 43 41 40 40 40 45 53 67 92
342 320 318 219 67 45 71 44 91 69 74 126 264 244 284 328 198 197 200 174 159 169 128 74 76 56 51 57 43 72 55 336 115 204 266 109 110 116 140 150 166 176 179 179 179 170 162 164 156 145 142 137 132 131 131 134 134 135 137 135 133 131 126 120 116 115 110 106 104 101 99 98 96 96 95 94 92 87 81 75 70 63 54 49 47 46 45 45 45 46 45 43 42 44 48 58 85
339 324 316 183 87 26 61 42 122 116 111 177 238 259 257 198 200 212 229 212 209 196 157 53 60 8 81 84 19 100 61 303 350 260 291 42 98 131 147 147 160 170 177 181 178 172 168 165 158 148 145 142 137 131 131 133 134 136 137 136 136 137 133 125 121 122 119 114 110 106 102 100 97 96 95 95 94 90 84 78 72 61 51 48 47 46 45 44 46 49 50 48 47 49 52 58 80
341 353 358 141 103 43 92 73 108 103 167 180 164 256 247 204 210 222 251 261 240 202 174 94 83 300 74 93 322 122 278 289 325 328 338 38 116 141 158 162 167 170 177 183 179 177 172 168 164 156 151 145 139 133 132 133 135 138 138 140 140 140 138 131 127 127 126 123 117 114 111 107 104 99 98 98 96 91 86 79 70 60 52 49 46 45 44 43 47 51 53 55 56 58 60 65 80
350 92 36 72 91 113 111 103 123 111 205 170 150 243 237 205 216 211 243 329 43 152 161 98 136 152 55 350 25 139 268 310 321 325 4 74 145 152 167 171 172 175 178 181 182 181 174 172 171 166 158 149 144 136 133 133 136 140 141 141 144 145 142 138 133 130 130 126 123 121 118 114 111 107 106 102 97 91 87 80 69 61 55 50 46 45 44 44 47 52 55 60 65 68 68 72 82
10 156 27 63 44 35 100 122 155 177 190 173 181 204 207 214 212 171 148 52 59 27 68 104 135 112 67 298 5 319 355 328 309 328 6 17 179 162 173 176 177 181 181 182 184 183 177 175 175 176 163 152 150 140 135 134 137 142 143 145 146 147 144 142 135 132 132 129 127 123 119 117 112 109 109 105 98 92 87 78 70 62 55 51 48 45 44 45 49 53 55 62 70 71 70 77 86
52 127 18 80 32 25 91 102 163 185 152 213 231 195 198 212 197 147 131 122 142 12 66 147 97 91 5 8 150 270 12 347 328 351 347 328 198 172 177 180 182 187 185 185 184 184 182 177 178 181 168 158 154 146 142 137 141 143 144 149 149 148 145 143 139 134 133 129 127 124 123 121 113 108 109 107 102 94 87 79 70 60 53 50 49 48 46 49 52 55 57 62 70 69 71 83 87
54 42 57 79 75 39 56 42 132 219 256 250 245 233 225 197 180 132 108 46 211 98 99 246 349 100 191 68 257 277 348 352 358 357 176 356 201 174 178 181 184 190 187 187 184 185 184 182 183 183 177 166 160 154 149 143 145 145 145 150 151 149 145 144 141 135 131 130 129 127 126 124 118 111 113 112 107 98 89 80 69 58 52 53 52 50 48 51 55 58 59 63 67 70 78 86 86
44 25 133 76 81 64 36 19 264 243 256 252 236 243 232 180 172 114 115 126 141 79 233 240 72 101 141 122 253 301 352 333 21 113 133 74 179 167 177 180 182 187 187 186 183 186 188 190 188 183 184 175 168 163 157 151 147 149 149 150 155 154 150 148 143 138 137 138 137 132 128 127 122 116 120 117 109 101 92 81 70 60 54 55 54 51 51 53 56 59 62 64 67 76 83 85 85
40 357 102 75 77 113 176 195 248 247 274 305 286 254 221 175 145 84 78 116 53 82 171 104 92 135 109 95 257 220 354 330 96 133 124 96 126 165 172 175 178 182 185 184 181 188 190 191 195 187 185 184 179 173 165 158 151 153 157 153 158 162 156 151 146 144 144 144 141 138 134 128 126 126 128 123 115 106 97 85 71 62 56 58 57 53 53 56 59 61 63 66 70 78 83 83 84
103 338 65 88 131 168 188 169 213 253 306 325 226 262 200 154 144 140 142 129 101 90 160 203 156 140 89 313 260 242 288 162 164 131 130 122 130 158 165 172 179 181 183 189 186 189 195 191 193 195 192 193 191 182 171 161 158 156 160 163 162 164 161 156 155 153 153 150 143 137 137 134 133 136 136 132 124 116 107 92 75 64 60 63 61 55 56 61 61 63 64 66 70 76 81 81 81
123 142 87 99 157 144 149 147 210 281 320 256 199 254 136 150 184 177 153 115 56 117 128 285 155 110 99 246 276 280 241 159 161 134 143 144 138 145 157 169 178 179 179 189 189 184 193 193 190 199 200 201 202 187 176 169 167 163 161 169 170 167 167 166 167 165 162 155 145 137 134 137 138 142 143 138 130 126 119 100 82 68 65 69 64 58 60 63 63 65 66 67 69 73 78 78 77
129 153 104 106 107 113 141 134 218 165 240 247 229 269 160 171 192 167 138 108 276 177 313 318 135 113 122 215 302 267 203 157 157 152 159 153 149 147 149 157 166 172 170 175 177 170 172 178 187 206 206 205 209 194 184 179 171 169 165 172 177 175 175 175 175 175 173 164 155 143 135 137 139 147 147 142 140 136 133 114 89 70 69 73 67 62 64 65 66 66 67 69 70 72 76 78 76
126 136 86 105 83 78 156 163 162 155 219 225 195 237 79 85 137 132 146 134 212 240 331 354 90 165 186 173 240 226 166 156 159 161 167 158 153 150 152 152 154 166 172 167 168 169 168 179 198 208 208 208 211 204 192 185 177 174 169 173 181 183 184 184 185 183 179 177 175 160 147 141 140 149 152 152 152 148 141 117 87 73 74 75 71 68 68 68 68 66 67 69 70 72 74 76 76
112 109 69 91 119 144 179 172 121 129 239 220 221 224 90 313 111 117 237 140 144 334 10 350 10 336 181 172 230 177 150 157 160 161 157 152 151 147 153 156 152 158 170 175 177 189 191 199 207 192 195 204 206 206 202 190 183 181 175 178 183 186 190 190 192 189 185 184 185 177 164 151 143 150 159 162 160 156 140 115 85 77 78 77 74 72 69 69 69 66 66 68 69 72 75 76 74
66 76 68 82 149 186 186 173 165 168 235 238 263 224 118 261 327 124 277 70 106 9 25 293 333 14 158 194 213 144 150 158 158 156 146 144 148 145 146 154 157 154 160 171 177 189 194 197 197 176 186 200 196 197 207 202 194 189 185 184 183 186 190 193 196 193 191 189 190 184 174 163 156 157 163 167 162 160 150 134 109 86 82 79 77 73 70 69 68 66 66 67 68 71 75 76 75
55 78 93 121 174 193 179 179 194 176 196 209 220 174 137 180 257 152 46 36 58 36 18 348 352 16 52 118 122 138 150 156 160 155 143 140 146 147 146 150 158 161 162 170 175 187 198 195 189 185 192 198 188 193 205 203 199 195 195 194 187 188 192 195 197 196 197 194 193 186 177 171 167 168 170 175 170 170 166 152 135 105 87 76 77 76 71 70 68 69 69 69 68 69 72 74 73
82 109 98 184 199 201 189 179 189 185 183 184 198 161 153 187 176 129 198 309 13 77 340 350 360 348 51 94 112 137 149 154 162 158 146 141 146 150 152 157 161 166 170 177 181 189 202 204 197 201 205 183 177 189 200 197 198 199 202 200 193 194 195 199 200 198 199 197 194 189 184 180 176 176 178 183 178 177 173 160 150 127 98 76 83 81 75 72 72 74 75 73 71 70 70 71 72
133 109 88 228 212 222 222 187 196 218 174 153 178 152 161 217 163 137 192 192 231 206 215 205 250 233 207 196 114 135 147 150 160 159 151 145 148 153 156 165 170 174 179 183 186 188 195 199 201 207 213 195 179 188 197 196 197 198 199 201 200 199 196 202 206 203 201 197 195 195 193 185 179 176 182 189 184 182 178 168 157 133 114 114 106 92 82 74 77 82 82 78 74 72 71 71 72
112 104 153 214 172 171 224 199 207 217 162 149 149 118 154 232 163 154 150 146 260 245 214 195 205 200 187 202 143 135 143 144 154 158 154 151 153 160 164 172 179 186 193 194 196 197 196 196 199 205 210 210 201 200 202 201 198 196 195 203 207 203 200 204 209 209 204 195 198 200 195 192 185 179 186 193 191 189 182 174 161 141 138 141 124 107 93 83 85 88 87 83 78 73 72 71 70
68 60 192 192 138 139 217 199 192 154 122 112 122 146 185 185 144 157 154 175 234 235 226 213 200 181 171 173 153 138 138 141 151 157 156 157 161 167 175 184 193 202 207 211 211 210 208 203 200 200 202 203 201 204 206 205 204 200 196 198 205 208 207 211 213 209 201 197 199 196 195 204 194 184 197 199 194 192 185 176 167 159 157 150 139 123 106 95 91 91 91 87 81 76 74 73 71
93 304 245 202 176 183 206 183 191 144 115 132 161 190 153 126 270 194 172 209 229 254 254 217 179 159 155 149 147 142 141 149 155 160 163 164 169 175 186 198 208 219 223 226 226 222 218 213 209 202 199 200 200 202 201 201 209 213 203 193 197 207 207 211 212 201 200 204 203 197 199 209 202 195 212 207 196 189 182 176 172 168 164 160 153 135 120 108 97 95 97 94 90 82 76 75 73
91 159 282 202 190 213 216 150 178 149 143 188 170 120 152 180 224 174 202 235 251 325 353 137 134 139 143 139 145 150 150 155 157 163 167 170 177 181 192 207 218 227 231 232 229 225 222 217 216 209 201 201 203 202 199 202 211 210 199 188 193 205 208 207 200 194 203 211 210 205 202 205 208 207 212 214 206 188 178 176 177 174 168 164 156 140 124 113 107 105 104 102 98 88 79 76 75
71 153 233 205 205 251 270 80 158 175 172 169 117 144 222 202 184 228 237 239 207 74 86 111 119 125 138 143 149 151 150 156 157 160 165 169 178 183 193 210 221 226 227 224 220 222 222 217 216 211 203 202 205 204 201 206 206 188 183 192 191 190 197 198 194 197 206 209 205 203 202 206 208 204 199 203 204 189 181 180 180 175 166 158 149 140 128 119 116 110 106 105 100 91 84 79 75
178 153 191 168 335 320 351 158 245 221 226 112 132 230 267 257 237 274 243 207 155 112 99 113 123 128 147 153 161 159 156 162 163 163 166 170 176 184 192 202 211 211 215 209 203 212 220 219 214 207 202 200 203 203 198 199 195 176 178 191 186 183 190 188 189 192 191 193 193 195 201 207 204 196 189 186 187 188 186 181 175 169 163 157 149 141 135 129 121 110 105 103 98 93 88 82 78
171 126 146 126 341 316 65 219 264 278 261 178 186 244 278 321 284 253 249 182 150 117 115 135 136 151 165 161 173 169 169 172 170 167 166 172 178 186 191 195 199 196 200 188 182 188 198 216 205 193 193 195 197 195 189 187 187 178 178 182 180 183 181 173 174 172 167 173 177 184 187 187 195 189 183 183 182 182 183 179 172 169 164 159 155 145 139 134 122 110 104 101 99 99 95 87 80
90 97 313 325 341 309 226 233 263 221 244 183 171 244 281 355 245 230 229 171 156 137 148 170 158 170 173 168 179 178 182 180 175 173 174 181 184 187 190 193 195 194 192 178 173 177 178 185 175 170 177 185 189 186 178 178 184 180 175 175 172 171 165 161 165 161 155 158 158 164 167 163 181 185 179 180 176 171 170 169 169 166 160 157 158 149 139 133 124 113 105 102 102 103 98 90 84
55 67 335 308 352 331 259 239 228 166 205 183 151 281 282 219 223 240 215 158 146 143 166 184 182 185 181 180 181 187 192 182 182 189 189 189 187 189 192 191 191 195 189 173 168 168 166 164 161 161 167 176 181 177 170 170 178 176 168 169 172 164 156 155 156 151 144 143 143 148 153 153 165 177 173 167 168 168 164 163 163 157 153 152 152 150 141 135 129 119 111 107 106 104 99 96 93
340 44 56 314 356 328 276 305 138 157 184 182 149 277 270 237 240 259 175 155 140 155 189 196 197 198 193 192 186 196 196 186 193 200 197 193 190 192 193 189 187 190 179 171 170 166 167 163 161 162 163 170 174 171 164 161 168 170 165 167 169 160 153 149 144 139 131 129 131 134 146 153 160 172 167 160 164 167 161 157 155 150 147 147 147 151 149 141 132 121 116 114 110 107 105 105 103
13 359 39 4 351 283 288 353 133 156 192 156 134 230 266 264 265 253 187 168 158 182 206 201 204 206 202 204 196 205 203 197 204 203 198 196 191 189 193 189 186 187 176 176 174 166 170 163 161 163 161 166 171 168 163 161 167 169 168 165 161 157 154 149 142 138 131 129 131 134 148 154 158 164 160 159 159 155 150 145 142 141 143 146 147 151 149 141 132 122 122 122 115 113 113 111 108
32 313 307 341 189 266 304 277 163 160 251 90 137 213 272 275 279 255 180 175 178 194 210 207 211 210 206 211 203 210 215 212 212 203 198 195 189 188 194 191 187 187 182 182 178 171 173 166 163 162 161 165 167 167 163 163 166 164 163 158 155 157 155 148 143 145 144 139 144 147 149 148 149 153 150 153 153 147 144 139 136 138 143 147 147 148 145 137 135 129 125 127 123 120 118 114 111
358 115 248 269 191 276 317 301 219 187 116 129 198 229 278 279 301 317 168 181 193 207 222 216 217 215 209 210 207 209 214 217 217 206 197 193 191 191 197 196 189 188 190 190 181 177 175 168 165 162 162 163 163 165 160 159 159 154 154 151 151 155 150 144 145 150 152 149 155 157 152 146 147 151 150 155 155 148 145 140 136 138 143 147 143 142 138 132 137 135 125 127 129 125 122 118 114
312 10 243 244 201 217 299 305 291 172 135 210 227 241 254 260 307 21 179 190 194 217 229 222 219 219 213 209 211 213 208 211 214 205 197 192 191 194 200 199 194 191 195 193 178 178 178 169 168 166 164 163 162 162 155 154 156 152 151 147 148 151 144 140 143 147 147 149 154 154 154 154 157 158 156 158 155 148 144 140 137 138 141 142 138 133 129 128 133 133 126 126 129 128 125 122 120
197 195 209 254 239 213 250 282 260 144 161 221 211 241 255 264 275 220 204 197 198 222 231 229 226 219 215 212 213 215 210 214 209 199 196 194 192 195 199 196 195 195 193 190 179 179 180 172 169 166 166 166 164 161 154 156 157 152 150 146 145 147 142 139 144 145 142 146 151 152 156 158 160 159 156 157 154 149 145 140 138 137 138 138 134 127 124 125 127 128 128 128 129 127 126 126 125
165 177 164 193 233 248 233 252 254 183 171 230 216 232 249 257 263 243 217 199 209 236 243 242 233 218 215 216 218 214 212 217 203 196 196 197 196 195 194 192 192 193 190 187 183 182 179 175 170 162 163 168 164 157 155 158 155 148 146 144 144 144 143 142 144 144 143 148 152 155 157 155 157 158 155 156 154 149 144 140 138 135 136 135 130 124 120 122 126 128 130 131 130 127 126 128 128
130 135 156 197 212 267 250 247 280 202 164 243 225 229 248 251 260 257 213 186 221 240 242 242 231 217 215 216 219 213 211 209 193 195 197 197 198 193 190 188 186 186 186 186 184 182 179 179 177 166 163 166 164 158 156 159 157 153 149 146 143 142 145 145 142 144 147 152 154 155 153 150 155 156 153 154 151 148 144 141 138 135 136 133 126 120 118 121 127 131 132 131 131 129 127 129 131
113 137 188 253 215 253 258 243 288 183 167 260 250 242 254 251 257 261 193 175 224 227 227 235 228 219 218 217 219 209 195 181 183 196 196 195 196 191 188 186 184 184 182 183 184 182 179 178 180 175 168 166 167 164 161 161 161 160 156 150 144 143 146 146 143 145 150 154 153 152 150 149 154 154 153 154 151 149 146 141 138 137 138 133 124 118 118 123 128 134 136 133 132 131 130 133 136
128 125 158 254 245 271 282 279 315 109 176 263 283 266 260 254 255 256 223 208 229 227 222 230 224 218 219 217 214 196 183 184 187 194 194 193 192 189 189 185 186 187 180 180 183 180 178 176 175 172 168 167 167 165 162 160 158 158 155 149 147 146 147 147 145 147 151 153 151 150 151 151 153 154 154 154 151 148 145 140 139 139 137 132 125 120 118 123 130 139 143 139 136 133 132 141 149
184 163 161 236 247 259 275 292 332 353 216 267 295 285 269 259 257 253 239 228 240 246 235 236 229 222 222 216 205 194 192 190 188 190 189 191 189 188 190 187 185 184 179 179 180 179 177 175 172 167 166 167 167 165 164 161 157 155 152 148 148 147 145 146 145 145 149 150 148 150 152 153 153 153 155 154 151 147 144 140 138 136 131 129 127 123 120 121 128 136 142 145 144 138 131 133 154
236 199 191 220 232 217 227 290 331 338 332 350 333 300 274 241 238 246 249 236 246 252 245 246 242 231 224 212 203 201 197 188 185 187 185 186 188 188 189 188 185 182 181 180 179 179 178 176 173 171 171 172 172 172 171 168 161 154 147 141 140 139 139 143 143 142 146 147 147 148 151 154 153 152 153 151 147 143 140 136 134 131 128 127 126 123 122 122 124 129 134 142 145 142 130 113 110
269 226 204 215 222 227 240 332 2 353 325 343 19 308 279 246 231 247 270 279 247 245 239 244 245 232 213 211 209 200 195 191 186 183 182 183 185 185 187 189 186 183 183 182 180 181 180 178 177 177 177 176 176 176 174 170 164 157 151 145 142 139 137 142 144 144 147 147 147 149 150 152 150 148 147 144 141 138 135 132 130 129 126 126 125 122 122 122 123 123 125 130 133 137 134 117 106
264 244 207 214 212 224 247 218 63 274 261 298 52 292 277 281 232 232 240 244 254 252 241 245 246 231 214 216 212 194 188 188 183 182 181 181 182 182 187 189 188 185 183 183 182 181 181 181 180 181 181 180 178 176 173 168 161 157 156 155 153 150 147 148 150 150 151 150 148 149 148 146 145 143 141 139 137 135 134 132 131 130 128 125 124 122 120 119 118 116 116 117 118 123 130 122 115
238 250 182 187 193 210 220 181 191 235 263 317 47 106 278 282 262 223 209 218 258 264 255 253 247 231 225 222 212 197 190 184 179 182 183 185 185 183 185 188 187 185 183 182 183 183 183 183 184 183 182 182 180 176 172 167 161 158 157 156 156 157 158 157 155 154 152 151 149 147 145 143 142 141 141 140 139 138 137 136 135 133 130 127 124 121 117 116 113 112 111 108 110 111 109 114 118
245 222 134 146 165 180 164 148 185 294 1 302 239 125 256 274 281 24 191 208 250 260 256 257 252 233 224 225 216 200 192 186 181 183 185 187 186 184 185 185 185 185 184 183 184 186 186 185 185 185 183 182 179 175 171 167 165 164 163 162 160 161 161 159 157 154 151 150 148 147 146 145 145 144 144 143 142 142 141 140 139 135 131 128 126 121 118 117 115 114 114 111 111 110 106 109 113
213 127 97 77 79 82 87 117 124 54 315 247 202 163 232 269 238 108 93 214 238 252 255 257 261 244 220 218 213 198 185 184 186 185 185 186 184 182 182 182 182 184 185 186 186 186 187 186 186 186 186 184 178 174 172 171 172 172 171 172 169 165 160 157 155 152 151 151 150 149 149 149 148 147 146 146 145 145 143 142 139 136 132 129 126 124 122 122 120 118 117 116 115 113 114 115 113
137 104 67 49 36 36 49 51 82 54 278 235 192 183 192 269 266 164 199 217 220 237 257 268 280 276 237 217 204 192 182 181 182 181 180 182 181 179 179 181 181 182 185 187 187 187 188 188 188 188 189 187 181 177 176 177 180 180 180 182 179 171 164 159 156 154 153 154 153 152 152 151 151 150 149 149 148 147 145 142 139 135 133 130 127 126 125 123 122 121 118 117 115 115 117 118 116
113 89 84 72 353 6 21 357 48 183 261 243 200 188 185 234 258 223 246 263 241 225 237 261 272 273 247 220 204 191 182 178 174 172 173 172 175 177 178 179 179 180 183 186 187 188 189 189 190 189 189 188 184 182 183 184 185 186 188 189 184 177 170 165 161 158 158 158 156 155 155 154 153 153 153 152 150 149 146 143 140 137 134 132 130 128 126 124 122 121 119 118 116 116 117 117 116
112 103 112 118 324 354 350 315 59 222 258 285 227 166 203 241 253 259 261 263 252 230 224 238 251 260 247 217 205 191 177 177 175 175 174 171 175 178 179 179 179 180 183 186 187 187 188 190 191 191 189 188 186 185 187 189 190 191 192 190 185 178 172 168 165 162 162 162 161 159 159 158 157 157 157 155 152 151 149 145 142 140 137 135 133 131 128 126 124 122 121 120 118 118 119 116 114
164 148 144 151 159 207 262 266 266 258 270 302 286 168 246 275 271 247 248 256 261 247 236 236 239 253 258 228 199 188 183 183 182 179 177 178 180 179 180 180 180 182 184 186 187 187 187 188 190 192 190 189 189 189 190 191 193 195 194 190 184 176 172 170 168 166 165 166 165 164 164 163 161 160 159 157 154 153 151 148 146 143 141 140 137 135 132 129 127 125 124 123 122 121 122 118 114
184 157 142 160 161 170 210 215 227 256 286 305 284 192 205 223 252 238 239 265 281 263 252 254 249 254 263 235 191 184 190 189 185 184 183 185 182 180 181 182 182 183 184 185 187 188 188 188 190 191 190 189 190 191 191 193 194 194 192 187 181 176 173 172 170 170 169 169 169 168 167 165 163 161 160 158 157 156 155 152 151 149 146 144 142 139 136 134 133 131 129 129 127 128 129 124 121
223 118 118 183 182 169 196 201 180 181 298 290 229 224 217 211 263 268 256 269 273 265 268 268 265 264 234 208 193 188 194 189 188 189 187 187 184 182 182 183 183 184 184 186 187 188 189 189 190 191 191 190 191 192 192 193 194 192 189 184 179 176 175 174 173 173 172 172 172 171 169 167 165 163 162 161 160 160 159 156 155 153 150 149 147 144 141 139 139 138 137 137 134 135 137 130 128
166 137 174 200 167 151 179 270 109 102 274 267 194 245 289 308 281 277 268 271 273 271 268 258 259 257 192 209 204 196 197 191 193 192 188 187 185 186 186 185 185 184 185 188 189 190 191 190 189 189 190 190 191 193 193 193 193 190 186 183 180 178 178 177 176 175 175 175 175 174 171 169 168 167 166 165 164 163 163 161 160 157 155 154 152 150 148 146 146 145 143 145 142 142 144 136 134
129 178 199 154 79 100 118 259 327 54 261 271 203 241 277 281 273 305 353 292 277 269 263 262 260 231 209 224 212 203 199 190 194 191 189 190 188 189 189 188 188 187 187 189 190 191 191 190 190 188 189 189 190 192 193 193 192 189 186 184 182 181 181 181 179 178 178 178 177 176 174 172 171 171 169 168 167 167 166 166 165 162 160 159 158 156 155 154 154 153 152 153 151 149 152 147 144
127 183 187 120 133 202 123 181 231 199 249 281 273 259 251 205 224 271 266 259 268 272 275 275 263 232 219 228 211 204 195 185 194 191 189 193 193 192 190 189 190 189 190 190 190 191 189 189 190 190 192 192 191 192 192 194 194 191 189 186 184 184 184 183 182 181 181 181 180 178 177 176 175 174 174 172 171 171 170 171 169 167 165 164 164 162 161 162 162 163 163 162 159 158 163 160 155
50 94 146 99 147 176 163 170 172 164 231 282 305 299 253 220 206 201 220 232 238 254 270 274 261 231 213 215 203 201 196 192 197 194 193 194 194 195 192 190 191 190 191 191 189 189 188 189 190 192 194 193 192 193 193 194 194 193 191 188 187 187 186 186 185 184 185 184 182 181 180 179 178 178 177 176 176 176 175 174 174 172 169 168 169 168 167 169 170 172 172 171 168 167 173 173 168
156 159 172 187 140 101 158 208 129 133 166 218 278 287 268 244 207 192 210 222 219 227 244 266 271 233 201 206 200 200 200 199 199 193 193 192 191 194 194 193 193 191 192 192 191 190 189 190 192 193 194 194 193 194 194 195 195 193 192 190 190 189 189 189 188 188 188 186 185 185 183 183 182 181 181 180 180 181 180 179 177 176 174 173 173 172 173 175 177 179 179 178 178 177 182 184 182
183 189 191 186 170 137 160 239 195 139 183 181 196 270 267 238 188 197 209 216 216 215 223 260 277 237 200 206 200 200 200 196 195 189 185 186 187 190 191 192 193 193 194 194 194 192 190 191 194 195 197 196 195 195 196 196 196 195 194 193 192 192 191 191 190 190 190 189 188 188 187 186 185 184 184 184 184 185 185 184 182 180 179 178 177 177 178 181 184 185 184 183 186 187 190 192 191